#timestamp,LO_Frequency,Hit,StdDev 
1509901215.5,286047007.2,N
1509901235.4,286047009.1,N
1509901255.2,286047005.0,N
1509901275.0,286047003.3,N
1509901276.0,286047003.3,N
1509901295.8,286047006.0,N
1509901315.6,286046999.2,N
1509901335.4,286047001.7,N
1509901355.3,286047002.8,N
1509901375.1,286046995.0,N
1509901395.8,286046996.0,N
1509901415.7,286046999.3,N
1509901435.5,286046999.3,N
1509901455.3,286046990.6,N
1509901475.2,286046988.9,N
1509901495.0,286046992.6,N
1509901495.9,286046992.6,N
1509901515.7,286046988.6,N
1509901535.6,286046989.4,N
1509901555.4,286046986.9,N
1509901575.2,286046991.0,N
1509901595.1,286046996.0,N
1509901596.0,286046996.0,N
1509901615.8,286046991.1,N
1509901635.6,286046985.7,N
1509901655.5,286046983.9,N
1509901675.3,286046985.5,N
1509901695.1,286046987.4,N
1509901715.9,286046986.8,N
1509901735.7,286046984.4,N
1509901755.5,286046984.8,N
1509901775.4,286046980.6,N
1509901795.2,286046985.4,N
1509901815.0,286046986.9,N
1509901815.9,286046986.9,N
1509901835.8,286046989.1,N
1509901855.6,286046991.4,N
1509901875.4,286046986.5,N
1509901895.3,286046980.8,Y
1509901915.1,286046988.7,P
1509901935.9,286046992.8,P
1509901955.7,286046990.7,P
1509901975.5,286046991.7,Y
1509901995.4,286047002.6,P
1509902015.2,286047004.3,N
1509902035.0,286047001.5,N
1509902035.9,286047001.5,N
1509902055.8,286046999.4,N
1509902075.6,286047000.6,N
1509902095.4,286046998.6,N
1509902115.3,286046998.3,N
1509902135.1,286047001.8,N
1509902136.0,286047001.8,N
1509902155.8,286046999.8,N
1509902175.7,286047004.4,N
1509902195.5,286047005.1,N
1509902215.3,286047007.2,N
1509902235.2,286047005.7,N
1509902255.9,286047000.8,N
1509902275.7,286046997.1,N
1509902295.6,286046998.9,N
1509902315.4,286046996.5,N
1509902335.2,286046996.4,N
1509902355.1,286046997.0,N
1509902356.0,286046997.0,N
1509902375.8,286046999.2,N
1509902395.6,286046996.9,N
1509902415.5,286046999.6,N
1509902435.3,286047001.1,N
1509902455.1,286046999.6,N
1509902475.9,286046997.3,N
1509902495.7,286046996.6,N
1509902515.5,286046995.7,N
1509902535.4,286046994.8,N
1509902555.2,286046993.4,N
1509902575.0,286046997.9,N
1509902576.0,286046997.9,N
1509902595.8,286046994.5,N
1509902615.6,286046995.4,N
1509902635.5,286046997.4,N
1509902655.3,286046997.4,N
1509902675.1,286046999.4,N
1509902695.9,286046999.5,N
1509902715.7,286047001.1,N
1509902735.5,286047000.4,N
1509902755.4,286047000.8,N
1509902775.2,286047004.4,N
1509902795.0,286047003.8,N
1509902795.9,286047003.8,N
1509902815.8,286047005.0,N
1509902835.6,286047006.2,N
1509902855.4,286047005.8,N
1509902875.3,286047001.8,N
1509902895.1,286046998.1,N
1509902896.0,286046998.1,N
1509902915.8,286046996.7,N
1509902935.7,286046997.5,N
1509902955.5,286046997.6,N
1509902975.3,286046995.2,N
1509902995.2,286046999.1,N
1509903015.9,286046997.6,N
1509903035.7,286046993.9,N
1509903055.6,286046995.0,N
1509903075.4,286046998.7,N
1509903095.2,286046998.1,N
1509903115.1,286047000.3,N
1509903116.0,286047000.3,N
1509903135.8,286047002.3,N
1509903155.6,286047001.8,N
1509903175.5,286046999.9,N
1509903195.3,286047003.5,N
1509903215.1,286047005.2,N
1509903235.9,286047007.3,N
1509903255.7,286047006.8,N
1509903275.5,286047004.5,N
1509903295.4,286047004.8,N
1509903315.2,286046999.7,N
1509903335.0,286047000.0,N
1509903335.9,286047000.0,N
1509903355.8,286046999.0,N
1509903375.6,286046999.1,N
1509903395.4,286047000.8,N
1509903415.3,286046999.7,N
1509903435.1,286047002.5,N
1509903436.0,286047002.5,N
1509903455.8,286047002.1,N
1509903475.7,286046998.5,N
1509903495.5,286047002.4,N
1509903515.3,286047001.2,N
1509903535.2,286046998.8,N
1509903555.9,286047000.9,N
1509903575.7,286047004.0,N
1509903595.6,286047003.3,N
1509903615.4,286047004.7,N
1509903635.2,286047007.1,N
1509903655.1,286047003.6,N
1509903656.0,286047003.6,N
1509903675.8,286047004.8,N
1509903695.6,286047005.5,N
1509903715.5,286047001.4,N
1509903735.3,286047001.4,N
1509903755.1,286047001.3,N
1509903775.9,286046998.6,N
1509903795.7,286047001.0,N
1509903815.5,286046999.7,N
1509903835.4,286046999.8,N
1509903855.2,286047003.2,N
1509903875.0,286047000.1,N
1509903875.9,286047000.1,N
1509903895.8,286046996.9,N
1509903915.6,286046998.4,N
1509903935.4,286047000.2,N
1509903955.3,286047002.0,N
1509903975.1,286047003.5,N
1509903976.0,286047003.5,N
1509903995.8,286047007.5,Y
1509904015.7,286047004.3,P
1509904035.5,286047002.8,N
1509904055.3,286047001.0,N
1509904075.2,286047000.8,N
1509904095.9,286046996.7,N
1509904115.7,286046997.8,N
1509904135.6,286046993.3,N
1509904155.4,286047000.3,N
1509904175.2,286047009.1,N
1509904195.1,286047009.4,N
1509904196.0,286047009.4,N
1509904215.8,286047011.9,N
1509904235.6,286047011.4,N
1509904255.5,286047014.9,N
1509904275.3,286047011.5,N
1509904295.1,286047010.5,N
1509904315.9,286047012.4,N
1509904335.7,286047010.0,N
1509904355.5,286047013.3,N
1509904375.4,286047016.7,N
1509904395.2,286047017.7,N
1509904415.0,286047017.6,N
1509904415.9,286047017.6,N
1509904435.8,286047019.6,N
1509904455.6,286047018.4,N
1509904475.4,286047020.2,N
1509904495.3,286047018.3,N
1509904515.1,286047020.1,N
1509904516.0,286047020.1,N
1509904535.8,286047019.9,N
1509904555.7,286047016.4,N
1509904575.5,286047014.5,N
1509904595.3,286047012.0,N
1509904615.2,286047010.1,N
1509904635.9,286047008.2,N
1509904655.7,286047008.1,N
1509904675.6,286047012.1,N
1509904695.4,286047013.3,N
1509904715.2,286047011.7,N
1509904735.1,286047009.6,N
1509904736.0,286047009.6,N
1509904755.8,286047013.3,Y
1509904775.6,286047000.3,P
1509904795.5,286047002.6,N
